JBU2202 KFLL-KRDU

Flight info

Callsign JBU2202
Flight time 1h 36m
Altitude 32000
Route AGERS1 DUCEN Q87 VIYAP Q69 GURGE PETTO DMSTR2
Aircraft A321/M-SDE3FGHIRWY/LB1

Departure

Time 2026-05-03 21:32
Airport Fort Lauderdale Hollywood International Airport (KFLL)

Arrival

Time 2026-05-03 23:08
Airport Raleigh-Durham International Airport (KRDU)
Time Latitude Longitude Altitude Speed Heading
2026-05-03 20:30 26.07155 -80.14690 12 ft 0 kts 178°
2026-05-03 20:31 26.07087 -80.14757 12 ft 0 kts 99°
2026-05-03 20:50 26.07087 -80.14771 12 ft 2 kts 76°
2026-05-03 20:50 26.07082 -80.14786 12 ft 2 kts 54°
2026-05-03 20:50 26.07071 -80.14798 12 ft 2 kts 31°
2026-05-03 20:51 26.07057 -80.14804 12 ft 2 kts
2026-05-03 20:51 26.07042 -80.14803 12 ft 2 kts 344°
2026-05-03 20:51 26.07028 -80.14796 12 ft 2 kts 321°
2026-05-03 20:51 26.07018 -80.14784 12 ft 2 kts 313°
2026-05-03 20:52 26.07009 -80.14774 12 ft 0 kts 317°
2026-05-03 20:52 26.07008 -80.14774 12 ft 0 kts 316°
2026-05-03 20:54 26.07011 -80.14777 12 ft 2 kts 315°
2026-05-03 20:54 26.07041 -80.14809 12 ft 8 kts 316°
2026-05-03 20:55 26.07087 -80.14858 12 ft 9 kts 315°
2026-05-03 20:55 26.07138 -80.14915 12 ft 10 kts 315°
2026-05-03 20:55 26.07162 -80.14989 12 ft 10 kts 241°
2026-05-03 20:55 26.07169 -80.15067 12 ft 11 kts 295°
2026-05-03 20:56 26.07226 -80.15122 12 ft 11 kts 344°
2026-05-03 20:56 26.07308 -80.15126 12 ft 12 kts
2026-05-03 20:56 26.07394 -80.15125 12 ft 12 kts
2026-05-03 20:56 26.07476 -80.15147 12 ft 12 kts 311°
2026-05-03 20:57 26.07492 -80.15243 12 ft 13 kts 271°
2026-05-03 20:57 26.07492 -80.15346 12 ft 13 kts 270°
2026-05-03 20:57 26.07492 -80.15456 12 ft 14 kts 270°
2026-05-03 20:57 26.07492 -80.15569 12 ft 14 kts 270°
2026-05-03 20:58 26.07494 -80.15683 12 ft 15 kts 269°
2026-05-03 20:58 26.07495 -80.15802 12 ft 15 kts 271°
2026-05-03 20:58 26.07496 -80.15923 12 ft 15 kts 270°
2026-05-03 20:58 26.07496 -80.16045 12 ft 16 kts 270°
2026-05-03 20:59 26.07495 -80.16172 12 ft 16 kts 270°
2026-05-03 20:59 26.07496 -80.16235 12 ft 0 kts 270°
2026-05-03 21:01 26.07496 -80.16251 12 ft 5 kts 271°
2026-05-03 21:01 26.07497 -80.16290 12 ft 1 kts 270°
2026-05-03 21:01 26.07497 -80.16293 12 ft 0 kts 270°
2026-05-03 21:01 26.07497 -80.16299 12 ft 1 kts 270°
2026-05-03 21:02 26.07497 -80.16320 12 ft 3 kts 270°
2026-05-03 21:02 26.07497 -80.16339 12 ft 0 kts 270°
2026-05-03 21:02 26.07497 -80.16349 12 ft 2 kts 270°
2026-05-03 21:02 26.07497 -80.16371 12 ft 3 kts 270°
2026-05-03 21:03 26.07497 -80.16373 12 ft 0 kts 270°
2026-05-03 21:04 26.07497 -80.16374 12 ft 0 kts 270°
2026-05-03 21:04 26.07497 -80.16383 12 ft 1 kts 270°
2026-05-03 21:05 26.07497 -80.16405 12 ft 3 kts 270°
2026-05-03 21:05 26.07497 -80.16428 12 ft 0 kts 270°
2026-05-03 21:05 26.07497 -80.16434 12 ft 1 kts 270°
2026-05-03 21:05 26.07498 -80.16452 12 ft 3 kts 271°
2026-05-03 21:06 26.07498 -80.16466 12 ft 0 kts 270°
2026-05-03 21:08 26.07498 -80.16473 12 ft 1 kts 271°
2026-05-03 21:08 26.07498 -80.16492 12 ft 3 kts 270°
2026-05-03 21:09 26.07498 -80.16521 12 ft 0 kts 270°
2026-05-03 21:12 26.07498 -80.16531 12 ft 2 kts 270°
2026-05-03 21:13 26.07498 -80.16559 12 ft 5 kts 269°
2026-05-03 21:13 26.07498 -80.16589 12 ft 0 kts 271°
2026-05-03 21:14 26.07498 -80.16595 12 ft 1 kts 271°
2026-05-03 21:14 26.07499 -80.16615 12 ft 3 kts 277°
2026-05-03 21:14 26.07509 -80.16633 12 ft 0 kts 320°
2026-05-03 21:15 26.07509 -80.16634 12 ft 0 kts 322°
2026-05-03 21:16 26.07516 -80.16637 12 ft 1 kts 335°
2026-05-03 21:16 26.07531 -80.16641 12 ft 2 kts 353°
2026-05-03 21:16 26.07544 -80.16643 12 ft 0 kts 357°
2026-05-03 21:23 26.07552 -80.16643 12 ft 3 kts 358°
2026-05-03 21:23 26.07589 -80.16643 12 ft 4 kts
2026-05-03 21:23 26.07593 -80.16643 12 ft 0 kts
2026-05-03 21:29 26.07594 -80.16643 12 ft 1 kts
2026-05-03 21:29 26.07631 -80.16641 12 ft 8 kts
2026-05-03 21:30 26.07685 -80.16624 12 ft 8 kts 53°
2026-05-03 21:30 26.07694 -80.16577 12 ft 0 kts 89°
2026-05-03 21:31 26.07694 -80.16563 12 ft 13 kts 89°
2026-05-03 21:31 26.07692 -80.16164 12 ft 87 kts 89°
2026-05-03 21:31 26.07686 -80.15244 12 ft 149 kts 90°
2026-05-03 21:31 26.07685 -80.13948 279 ft 176 kts 88°
2026-05-03 21:32 26.07694 -80.12593 967 ft 175 kts 88°
2026-05-03 21:32 26.07687 -80.11284 1535 ft 169 kts 89°
2026-05-03 21:32 26.07718 -80.09971 1857 ft 175 kts 77°
2026-05-03 21:32 26.08128 -80.08661 2115 ft 187 kts 65°
2026-05-03 21:33 26.08831 -80.07384 2372 ft 200 kts 44°
2026-05-03 21:33 26.10081 -80.06581 2598 ft 217 kts 19°
2026-05-03 21:33 26.11556 -80.06043 2920 ft 234 kts 18°
2026-05-03 21:33 26.13170 -80.05444 3265 ft 252 kts 18°
2026-05-03 21:34 26.14906 -80.04901 3681 ft 266 kts
2026-05-03 21:34 26.16759 -80.05025 3960 ft 267 kts 344°
2026-05-03 21:34 26.18523 -80.05668 3984 ft 265 kts 339°
2026-05-03 21:34 26.20248 -80.06382 3984 ft 265 kts 339°
2026-05-03 21:35 26.21906 -80.07284 3970 ft 265 kts 321°
2026-05-03 21:35 26.23053 -80.08884 3980 ft 266 kts 296°
2026-05-03 21:35 26.23724 -80.10777 3988 ft 265 kts 291°
2026-05-03 21:35 26.24367 -80.12703 3993 ft 266 kts 291°
2026-05-03 21:36 26.25050 -80.14610 4328 ft 271 kts 297°
2026-05-03 21:36 26.26229 -80.16213 5198 ft 271 kts 320°
2026-05-03 21:36 26.27848 -80.17291 6089 ft 271 kts 330°
2026-05-03 21:36 26.29539 -80.18233 6815 ft 276 kts 330°
2026-05-03 21:37 26.31245 -80.19173 7560 ft 279 kts 330°
2026-05-03 21:37 26.33002 -80.20149 8314 ft 281 kts 329°
2026-05-03 21:37 26.34741 -80.21124 9030 ft 284 kts 328°
2026-05-03 21:37 26.36534 -80.22096 9724 ft 289 kts 333°
2026-05-03 21:38 26.38445 -80.22780 10381 ft 297 kts 342°
2026-05-03 21:38 26.40565 -80.23148 10757 ft 314 kts 349°
2026-05-03 21:38 26.42794 -80.23384 11042 ft 331 kts 351°
2026-05-03 21:38 26.45142 -80.23603 11325 ft 348 kts 351°
2026-05-03 21:39 26.47645 -80.23840 11602 ft 363 kts 351°
2026-05-03 21:39 26.50210 -80.24094 11857 ft 378 kts 351°
2026-05-03 21:39 26.52880 -80.24364 12108 ft 392 kts 351°
2026-05-03 21:39 26.55636 -80.24653 12429 ft 403 kts 350°
2026-05-03 21:40 26.58399 -80.25059 12932 ft 406 kts 348°
2026-05-03 21:40 26.61218 -80.25521 13498 ft 409 kts 347°
2026-05-03 21:40 26.64056 -80.25997 14030 ft 412 kts 347°
2026-05-03 21:40 26.66865 -80.26469 14550 ft 415 kts 347°
2026-05-03 21:41 26.69732 -80.27091 15044 ft 417 kts 343°
2026-05-03 21:41 26.72507 -80.27924 15534 ft 418 kts 339°
2026-05-03 21:41 26.75256 -80.28980 16034 ft 419 kts 336°
2026-05-03 21:41 26.78028 -80.30137 16527 ft 422 kts 335°
2026-05-03 21:42 26.80785 -80.31303 17000 ft 425 kts 335°
2026-05-03 21:42 26.83532 -80.32461 17466 ft 428 kts 335°
2026-05-03 21:42 26.86352 -80.33649 17918 ft 432 kts 335°
2026-05-03 21:42 26.89172 -80.34833 18327 ft 435 kts 335°
2026-05-03 21:43 26.92005 -80.36021 18763 ft 437 kts 335°
2026-05-03 21:43 26.94883 -80.37221 19207 ft 440 kts 335°
2026-05-03 21:43 26.97783 -80.38397 19598 ft 444 kts 335°
2026-05-03 21:43 27.00694 -80.39564 19979 ft 447 kts 335°
2026-05-03 21:44 27.03618 -80.40737 20343 ft 450 kts 335°
2026-05-03 21:44 27.06600 -80.41937 20732 ft 452 kts 335°
2026-05-03 21:44 27.09565 -80.43136 21099 ft 454 kts 334°
2026-05-03 21:44 27.12488 -80.44391 21462 ft 455 kts 333°
2026-05-03 21:45 27.15461 -80.45712 21788 ft 457 kts 332°
2026-05-03 21:45 27.18435 -80.47039 22135 ft 459 kts 332°
2026-05-03 21:45 27.21380 -80.48351 22488 ft 461 kts 332°
2026-05-03 21:45 27.24379 -80.49685 22820 ft 463 kts 332°
2026-05-03 21:46 27.27389 -80.51020 23121 ft 465 kts 332°
2026-05-03 21:46 27.30394 -80.52351 23405 ft 468 kts 332°
2026-05-03 21:46 27.33445 -80.53702 23717 ft 471 kts 332°
2026-05-03 21:46 27.36496 -80.55039 24031 ft 473 kts 333°
2026-05-03 21:47 27.39634 -80.56315 24362 ft 476 kts 334°
2026-05-03 21:47 27.42753 -80.57554 24688 ft 478 kts 334°
2026-05-03 21:47 27.45873 -80.58788 24975 ft 479 kts 334°
2026-05-03 21:47 27.49045 -80.60043 25400 ft 478 kts 334°
2026-05-03 21:48 27.52174 -80.61280 25837 ft 477 kts 334°
2026-05-03 21:48 27.55269 -80.62508 26207 ft 477 kts 333°
2026-05-03 21:48 27.58416 -80.63760 26583 ft 476 kts 333°
2026-05-03 21:48 27.61542 -80.65004 27008 ft 475 kts 333°
2026-05-03 21:49 27.64648 -80.66241 27437 ft 474 kts 333°
2026-05-03 21:49 27.67753 -80.67479 27883 ft 472 kts 332°
2026-05-03 21:49 27.70849 -80.68714 28327 ft 470 kts 332°
2026-05-03 21:49 27.73922 -80.69941 28726 ft 470 kts 332°
2026-05-03 21:50 27.76981 -80.71165 29131 ft 468 kts 332°
2026-05-03 21:50 27.80071 -80.72401 29519 ft 467 kts 332°
2026-05-03 21:50 27.83138 -80.73628 29848 ft 467 kts 331°
2026-05-03 21:50 27.86180 -80.74844 30170 ft 467 kts 331°
2026-05-03 21:51 27.89274 -80.76083 30537 ft 466 kts 330°
2026-05-03 21:51 27.92313 -80.77297 30888 ft 465 kts 330°
2026-05-03 21:51 27.95373 -80.78526 31174 ft 465 kts 330°
2026-05-03 21:51 27.98397 -80.79742 31427 ft 466 kts 329°
2026-05-03 21:52 28.01491 -80.80986 31663 ft 466 kts 329°
2026-05-03 21:52 28.04530 -80.82210 31911 ft 467 kts 329°
2026-05-03 21:52 28.07577 -80.83437 32050 ft 468 kts 329°
2026-05-03 21:52 28.10655 -80.84676 32056 ft 468 kts 329°
2026-05-03 21:53 28.16825 -80.87167 32063 ft 468 kts 329°
2026-05-03 21:53 28.22965 -80.89641 32068 ft 469 kts 329°
2026-05-03 21:54 28.29083 -80.92110 32066 ft 468 kts 329°
2026-05-03 21:54 28.35248 -80.94606 32067 ft 468 kts 329°
2026-05-03 21:55 28.41356 -80.97077 32073 ft 469 kts 329°
2026-05-03 21:55 28.47488 -80.99560 32076 ft 466 kts 329°
2026-05-03 21:56 28.53614 -81.02048 32071 ft 468 kts 329°
2026-05-03 21:56 28.59723 -81.04529 32073 ft 466 kts 329°
2026-05-03 21:57 28.65831 -81.07012 32073 ft 465 kts 329°
2026-05-03 21:57 28.71916 -81.09491 32073 ft 467 kts 329°
2026-05-03 21:58 28.78036 -81.11984 32073 ft 465 kts 328°
2026-05-03 21:58 28.84142 -81.14480 32074 ft 468 kts 329°
2026-05-03 21:59 28.90260 -81.16981 32070 ft 466 kts 329°
2026-05-03 21:59 28.96417 -81.19501 32082 ft 468 kts 329°
2026-05-03 22:00 29.02540 -81.22011 32083 ft 467 kts 329°
2026-05-03 22:00 29.08670 -81.24528 32088 ft 468 kts 329°
2026-05-03 22:01 29.14790 -81.27041 32079 ft 465 kts 329°
2026-05-03 22:01 29.20900 -81.29527 32081 ft 471 kts 330°
2026-05-03 22:02 29.27323 -81.31512 32097 ft 481 kts 337°
2026-05-03 22:02 29.33980 -81.32679 32091 ft 489 kts 343°
2026-05-03 22:03 29.40835 -81.33163 32100 ft 494 kts 347°
2026-05-03 22:03 29.47711 -81.33536 32093 ft 491 kts 347°
2026-05-03 22:04 29.54558 -81.33923 32102 ft 491 kts 347°
2026-05-03 22:04 29.61397 -81.34320 32094 ft 492 kts 347°
2026-05-03 22:05 29.68262 -81.34725 32088 ft 491 kts 346°
2026-05-03 22:05 29.75096 -81.35129 32016 ft 491 kts 346°
2026-05-03 22:06 29.78466 -81.35332 31774 ft 491 kts 347°
2026-05-03 22:06 29.81934 -81.35538 31521 ft 491 kts 347°
2026-05-03 22:06 29.85367 -81.35743 31266 ft 493 kts 347°
2026-05-03 22:06 29.88801 -81.35947 31105 ft 492 kts 347°
2026-05-03 22:07 29.95610 -81.36347 31106 ft 491 kts 347°
2026-05-03 22:07 30.02431 -81.36752 31101 ft 491 kts 347°
2026-05-03 22:08 30.09261 -81.37160 31110 ft 492 kts 347°
2026-05-03 22:08 30.16122 -81.37567 31107 ft 491 kts 347°
2026-05-03 22:09 30.22957 -81.37978 31107 ft 494 kts 347°
2026-05-03 22:10 30.33249 -81.38593 31103 ft 491 kts 348°
2026-05-03 22:10 30.40098 -81.39006 31104 ft 492 kts 348°
2026-05-03 22:11 30.46901 -81.39410 31110 ft 492 kts 348°
2026-05-03 22:11 30.53764 -81.39777 31109 ft 490 kts 348°
2026-05-03 22:12 30.60587 -81.40132 31111 ft 490 kts 348°
2026-05-03 22:12 30.67404 -81.40492 31108 ft 491 kts 348°
2026-05-03 22:13 30.74212 -81.40852 31108 ft 490 kts 348°
2026-05-03 22:13 30.81018 -81.41215 31106 ft 491 kts 348°
2026-05-03 22:14 30.87824 -81.41573 31096 ft 489 kts 348°
2026-05-03 22:14 30.94605 -81.41936 31097 ft 488 kts 348°
2026-05-03 22:15 31.01417 -81.42297 31100 ft 489 kts 348°
2026-05-03 22:15 31.08185 -81.42659 31113 ft 488 kts 348°
2026-05-03 22:16 31.14954 -81.43023 31109 ft 489 kts 349°
2026-05-03 22:16 31.21775 -81.43388 31114 ft 489 kts 348°
2026-05-03 22:17 31.28556 -81.43633 31115 ft 491 kts 350°
2026-05-03 22:17 31.35391 -81.43706 31117 ft 491 kts 351°
2026-05-03 22:18 31.42243 -81.43669 31107 ft 494 kts 354°
2026-05-03 22:18 31.49140 -81.42697 31103 ft 506 kts
2026-05-03 22:19 31.55961 -81.40506 31103 ft 512 kts 11°
2026-05-03 22:19 31.62672 -81.37723 31106 ft 514 kts 13°
2026-05-03 22:20 31.69409 -81.34897 31095 ft 513 kts 12°
2026-05-03 22:20 31.76124 -81.32116 31114 ft 512 kts 12°
2026-05-03 22:21 31.82807 -81.29357 31100 ft 510 kts 12°
2026-05-03 22:21 31.89555 -81.26583 31109 ft 510 kts 11°
2026-05-03 22:22 31.96326 -81.24460 31112 ft 502 kts
2026-05-03 22:22 32.03164 -81.23382 31111 ft 492 kts 355°
2026-05-03 22:23 32.10010 -81.23019 31110 ft 491 kts 353°
2026-05-03 22:23 32.16855 -81.22718 31111 ft 489 kts 353°
2026-05-03 22:24 32.23709 -81.22398 31110 ft 490 kts 354°
2026-05-03 22:24 32.30524 -81.22059 31111 ft 491 kts 354°
2026-05-03 22:25 32.37317 -81.21719 31111 ft 489 kts 354°
2026-05-03 22:25 32.44126 -81.21378 31107 ft 489 kts 354°
2026-05-03 22:26 32.50942 -81.21027 31108 ft 490 kts 354°
2026-05-03 22:26 32.57745 -81.20618 31111 ft 490 kts 354°
2026-05-03 22:27 32.64541 -81.20209 31104 ft 490 kts 354°
2026-05-03 22:27 32.71381 -81.19788 31110 ft 489 kts 354°
2026-05-03 22:28 32.78147 -81.19388 31102 ft 490 kts 354°
2026-05-03 22:28 32.84983 -81.18981 31099 ft 490 kts 354°
2026-05-03 22:29 32.91764 -81.18589 31104 ft 490 kts 354°
2026-05-03 22:29 32.98571 -81.18213 31109 ft 489 kts 354°
2026-05-03 22:30 33.05364 -81.16691 31106 ft 512 kts 14°
2026-05-03 22:30 33.08550 -81.14788 31104 ft 522 kts 26°
2026-05-03 22:30 33.11575 -81.12371 31106 ft 522 kts 28°
2026-05-03 22:31 33.17659 -81.07633 31100 ft 519 kts 27°
2026-05-03 22:31 33.23701 -81.02945 31105 ft 519 kts 27°
2026-05-03 22:32 33.29786 -80.98189 31108 ft 520 kts 27°
2026-05-03 22:32 33.35804 -80.93459 31107 ft 518 kts 27°
2026-05-03 22:33 33.41792 -80.88745 31108 ft 517 kts 27°
2026-05-03 22:33 33.47808 -80.83997 31115 ft 516 kts 27°
2026-05-03 22:34 33.53793 -80.79267 31072 ft 515 kts 27°
2026-05-03 22:34 33.56731 -80.76941 30822 ft 505 kts 27°
2026-05-03 22:34 33.59690 -80.74596 30565 ft 503 kts 27°
2026-05-03 22:34 33.62583 -80.72304 30319 ft 502 kts 28°
2026-05-03 22:35 33.65503 -80.69988 30066 ft 502 kts 28°
2026-05-03 22:35 33.68404 -80.67686 29814 ft 500 kts 27°
2026-05-03 22:35 33.71312 -80.65377 29569 ft 500 kts 27°
2026-05-03 22:35 33.74193 -80.63085 29258 ft 498 kts 28°
2026-05-03 22:36 33.77064 -80.60801 28952 ft 499 kts 28°
2026-05-03 22:36 33.79949 -80.58504 28660 ft 498 kts 28°
2026-05-03 22:36 33.82832 -80.56206 28356 ft 497 kts 28°
2026-05-03 22:36 33.85704 -80.53915 28054 ft 496 kts 28°
2026-05-03 22:37 33.88610 -80.51595 27744 ft 496 kts 28°
2026-05-03 22:37 33.91480 -80.49303 27443 ft 496 kts 28°
2026-05-03 22:37 33.94339 -80.47015 27146 ft 495 kts 28°
2026-05-03 22:37 33.97210 -80.44719 26842 ft 496 kts 28°
2026-05-03 22:38 34.00079 -80.42419 26543 ft 495 kts 28°
2026-05-03 22:38 34.02931 -80.40133 26240 ft 494 kts 28°
2026-05-03 22:38 34.05806 -80.37826 25936 ft 493 kts 28°
2026-05-03 22:38 34.08651 -80.35539 25632 ft 494 kts 28°
2026-05-03 22:39 34.11495 -80.33255 25325 ft 494 kts 29°
2026-05-03 22:39 34.14360 -80.30951 25021 ft 494 kts 29°
2026-05-03 22:39 34.17240 -80.28630 24712 ft 494 kts 30°
2026-05-03 22:39 34.20081 -80.26343 24407 ft 494 kts 30°
2026-05-03 22:40 34.22938 -80.24037 24101 ft 491 kts 30°
2026-05-03 22:40 34.25750 -80.21766 23796 ft 488 kts 30°
2026-05-03 22:40 34.28559 -80.19496 23485 ft 486 kts 30°
2026-05-03 22:40 34.31358 -80.17230 23160 ft 483 kts 30°
2026-05-03 22:41 34.34144 -80.14975 22850 ft 481 kts 30°
2026-05-03 22:41 34.36921 -80.12726 22541 ft 478 kts 30°
2026-05-03 22:41 34.39663 -80.10503 22235 ft 476 kts 29°
2026-05-03 22:41 34.42425 -80.08260 21925 ft 473 kts 29°
2026-05-03 22:42 34.45138 -80.06058 21621 ft 469 kts 29°
2026-05-03 22:42 34.47842 -80.03861 21315 ft 467 kts 29°
2026-05-03 22:42 34.50527 -80.01679 21108 ft 465 kts 29°
2026-05-03 22:42 34.53205 -79.99501 21098 ft 466 kts 29°
2026-05-03 22:43 34.55877 -79.97327 21099 ft 466 kts 29°
2026-05-03 22:43 34.58593 -79.95111 21090 ft 466 kts 29°
2026-05-03 22:43 34.61280 -79.92918 20885 ft 465 kts 29°
2026-05-03 22:43 34.63943 -79.90743 20632 ft 463 kts 29°
2026-05-03 22:44 34.66572 -79.88592 20335 ft 455 kts 29°
2026-05-03 22:44 34.69181 -79.86442 19960 ft 445 kts 30°
2026-05-03 22:44 34.71647 -79.84302 19593 ft 436 kts 31°
2026-05-03 22:44 34.74078 -79.82147 19230 ft 427 kts 31°
2026-05-03 22:45 34.76458 -79.80028 18874 ft 418 kts 31°
2026-05-03 22:45 34.78766 -79.77978 18524 ft 410 kts 31°
2026-05-03 22:45 34.81056 -79.75947 18178 ft 402 kts 31°
2026-05-03 22:45 34.83305 -79.73955 17837 ft 394 kts 31°
2026-05-03 22:46 34.85502 -79.72012 17503 ft 387 kts 31°
2026-05-03 22:46 34.87637 -79.70119 17170 ft 380 kts 31°
2026-05-03 22:46 34.89755 -79.68242 16918 ft 372 kts 31°
2026-05-03 22:46 34.91843 -79.66393 16672 ft 370 kts 31°
2026-05-03 22:47 34.93912 -79.64559 16425 ft 368 kts 31°
2026-05-03 22:47 34.95982 -79.62725 16176 ft 366 kts 31°
2026-05-03 22:47 34.98034 -79.60903 15929 ft 365 kts 31°
2026-05-03 22:47 35.00079 -79.59087 15676 ft 364 kts 31°
2026-05-03 22:48 35.02141 -79.57252 15425 ft 362 kts 31°
2026-05-03 22:48 35.04157 -79.55458 15176 ft 361 kts 31°
2026-05-03 22:48 35.06187 -79.53650 14927 ft 359 kts 31°
2026-05-03 22:48 35.08198 -79.51858 14679 ft 357 kts 31°
2026-05-03 22:49 35.10248 -79.50221 14429 ft 350 kts 22°
2026-05-03 22:49 35.12485 -79.49097 14180 ft 342 kts 11°
2026-05-03 22:49 35.14787 -79.48521 13934 ft 336 kts
2026-05-03 22:49 35.17115 -79.48198 13687 ft 334 kts
2026-05-03 22:50 35.19415 -79.47916 13440 ft 332 kts
2026-05-03 22:50 35.21719 -79.47629 13194 ft 331 kts
2026-05-03 22:50 35.23977 -79.47339 12952 ft 330 kts
2026-05-03 22:50 35.26275 -79.47036 12762 ft 329 kts
2026-05-03 22:51 35.28541 -79.46733 12521 ft 328 kts
2026-05-03 22:51 35.30813 -79.46428 12280 ft 326 kts
2026-05-03 22:51 35.33057 -79.46081 12026 ft 327 kts
2026-05-03 22:51 35.35231 -79.45248 11791 ft 331 kts 19°
2026-05-03 22:52 35.37235 -79.43838 11586 ft 335 kts 31°
2026-05-03 22:52 35.39069 -79.42066 11336 ft 335 kts 34°
2026-05-03 22:52 35.40853 -79.40246 11112 ft 333 kts 35°
2026-05-03 22:52 35.42631 -79.38422 11012 ft 333 kts 35°
2026-05-03 22:53 35.44391 -79.36625 11009 ft 333 kts 34°
2026-05-03 22:53 35.46173 -79.34816 11010 ft 333 kts 35°
2026-05-03 22:53 35.47981 -79.32985 11009 ft 334 kts 35°
2026-05-03 22:53 35.49767 -79.31176 11004 ft 334 kts 35°
2026-05-03 22:54 35.51553 -79.29373 10989 ft 334 kts 35°
2026-05-03 22:54 35.53354 -79.27550 11000 ft 334 kts 35°
2026-05-03 22:54 35.55156 -79.25727 11012 ft 334 kts 35°
2026-05-03 22:54 35.56948 -79.23913 11009 ft 334 kts 35°
2026-05-03 22:55 35.58742 -79.22096 10997 ft 334 kts 35°
2026-05-03 22:55 35.60529 -79.20285 10998 ft 334 kts 35°
2026-05-03 22:55 35.62294 -79.18425 10985 ft 336 kts 38°
2026-05-03 22:55 35.63913 -79.16354 10912 ft 339 kts 45°
2026-05-03 22:56 35.65375 -79.14066 10664 ft 339 kts 49°
2026-05-03 22:56 35.66763 -79.11737 10421 ft 337 kts 50°
2026-05-03 22:56 35.68119 -79.09435 10182 ft 336 kts 50°
2026-05-03 22:56 35.69467 -79.07149 9976 ft 327 kts 50°
2026-05-03 22:57 35.70794 -79.04905 9824 ft 317 kts 49°
2026-05-03 22:57 35.72071 -79.02753 9735 ft 304 kts 49°
2026-05-03 22:57 35.73312 -79.00670 9570 ft 300 kts 49°
2026-05-03 22:57 35.74538 -78.98619 9294 ft 298 kts 49°
2026-05-03 22:58 35.75767 -78.96560 8962 ft 297 kts 49°
2026-05-03 22:58 35.76987 -78.94514 8646 ft 296 kts 50°
2026-05-03 22:58 35.78205 -78.92493 8288 ft 296 kts 47°
2026-05-03 22:58 35.79745 -78.90880 7886 ft 287 kts 24°
2026-05-03 22:59 35.81568 -78.90087 7865 ft 267 kts 10°
2026-05-03 22:59 35.83316 -78.89555 7854 ft 251 kts
2026-05-03 22:59 35.84987 -78.89062 7679 ft 244 kts
2026-05-03 22:59 35.86602 -78.88575 7590 ft 233 kts
2026-05-03 23:00 35.88184 -78.88090 7500 ft 232 kts
2026-05-03 23:00 35.89732 -78.87611 7345 ft 233 kts
2026-05-03 23:00 35.91324 -78.87114 7033 ft 233 kts 10°
2026-05-03 23:00 35.92886 -78.86624 6725 ft 233 kts 10°
2026-05-03 23:01 35.94410 -78.85936 6406 ft 236 kts 27°
2026-05-03 23:01 35.95703 -78.84664 6113 ft 239 kts 40°
2026-05-03 23:01 35.96862 -78.83216 6009 ft 236 kts 44°
2026-05-03 23:01 35.97750 -78.81514 5803 ft 246 kts 68°
2026-05-03 23:02 35.97964 -78.79382 5369 ft 255 kts 91°
2026-05-03 23:02 35.97916 -78.77180 4949 ft 258 kts 84°
2026-05-03 23:02 35.98096 -78.74989 4582 ft 261 kts 81°
2026-05-03 23:02 35.98335 -78.72741 4223 ft 264 kts 79°
2026-05-03 23:03 35.98622 -78.70486 3819 ft 264 kts 78°
2026-05-03 23:03 35.98924 -78.68294 3416 ft 257 kts 78°
2026-05-03 23:03 35.99102 -78.66139 3000 ft 253 kts 96°
2026-05-03 23:03 35.98401 -78.64243 2682 ft 242 kts 137°
2026-05-03 23:04 35.96983 -78.63411 2651 ft 217 kts 180°
2026-05-03 23:04 35.95682 -78.63919 2719 ft 188 kts 222°
2026-05-03 23:04 35.95154 -78.65276 2473 ft 173 kts 273°
2026-05-03 23:04 35.95528 -78.66624 2257 ft 165 kts 299°
2026-05-03 23:05 35.96033 -78.67819 2212 ft 148 kts 294°
2026-05-03 23:05 35.96297 -78.69002 2174 ft 144 kts 268°
2026-05-03 23:05 35.95853 -78.70106 2141 ft 147 kts 232°
2026-05-03 23:05 35.95112 -78.70966 1942 ft 143 kts 224°
2026-05-03 23:06 35.94355 -78.71745 1752 ft 142 kts 223°
2026-05-03 23:06 35.93623 -78.72560 1575 ft 141 kts 229°
2026-05-03 23:06 35.92976 -78.73349 1396 ft 141 kts 229°
2026-05-03 23:06 35.92247 -78.74258 1195 ft 141 kts 228°
2026-05-03 23:07 35.91553 -78.75116 1010 ft 141 kts 229°
2026-05-03 23:07 35.90865 -78.75963 840 ft 140 kts 228°
2026-05-03 23:07 35.90167 -78.76832 634 ft 141 kts 230°
2026-05-03 23:07 35.89467 -78.77690 483 ft 142 kts 230°
2026-05-03 23:08 35.88806 -78.78521 394 ft 127 kts 226°
2026-05-03 23:08 35.88275 -78.79180 385 ft 89 kts 224°
2026-05-03 23:08 35.87927 -78.79607 375 ft 43 kts 221°
2026-05-03 23:08 35.87786 -78.79709 376 ft 17 kts 180°
2026-05-03 23:09 35.87683 -78.79668 379 ft 14 kts 154°
2026-05-03 23:09 35.87630 -78.79617 382 ft 5 kts 134°
2026-05-03 23:09 35.87614 -78.79597 384 ft 0 kts 132°